Torna al catalogo

FENGYUN 1C DEB

AttivoPO
NORAD 46451·DEBRIS·🇨🇳 China

Lanciato May 10, 1999 da Taiyuan Satellite Launch Center

Loading…

Prossimi Passaggi (prossime 24 ore)

TLE

AggiornatoSource: Space-Track

Epoca: Sep 14, 2026, 11:58 UTC

1 46451U 99025EZG 26257.49883347  .00004097  00000-0  15744-2 0  9996
2 46451  98.1461 261.0179 0166327  95.3054  54.7421 14.23560179609262

Traccia FENGYUN 1C DEB in tempo reale con AllMySat

Download on the App Store